When you browse on this site, cookies collect data to enhance your experience and personalize the content and advertising you see.
Visit our Privacy Policy to learn more. By continuing to use the site, you agree to this use of cookies and data.
  • In Hungary
  • List of Countries
  • For 7 days
  • Water Temperature
  • Weather Map
  • News
  • Weather Widgets
  • user-avatar
    Login

    Hourly Weather Karamlino

    Today, 23 January, Thursday

    Time Temperature Precipitation Wind Pressure Humidity
    00:00 -6°C° 0 mm 6 mps 735 mmHg 85%
    01:00 -6°C° 0 mm 6 mps 736 mmHg 84%
    02:00 -6°C° 0 mm 6 mps 737 mmHg 82%
    03:00 -8°C° 0 mm 6 mps 737 mmHg 81%
    04:00 -7°C° 0 mm 5 mps 738 mmHg 79%
    05:00 -8°C° 0 mm 5 mps 738 mmHg 77%
    06:00 -8°C° 0 mm 5 mps 739 mmHg 77%
    07:00 -8°C° 0 mm 5 mps 739 mmHg 76%
    08:00 -8°C° 0 mm 5 mps 740 mmHg 76%
    09:00 -8°C° 0 mm 5 mps 741 mmHg 73%
    10:00 -7°C° 0 mm 5 mps 741 mmHg 71%
    11:00 -8°C° 0 mm 6 mps 741 mmHg 68%
    12:00 -8°C° 0 mm 6 mps 741 mmHg 68%
    13:00 -8°C° 0 mm 6 mps 742 mmHg 67%
    14:00 -6°C° 0 mm 6 mps 742 mmHg 67%
    15:00 -6°C° 0 mm 5 mps 742 mmHg 70%
    16:00 -6°C° 0 mm 5 mps 742 mmHg 74%
    17:00 -7°C° 0 mm 4 mps 743 mmHg 77%
    18:00 -7°C° 0 mm 4 mps 743 mmHg 78%
    19:00 -6°C° 0 mm 3 mps 743 mmHg 79%
    20:00 -6°C° 0 mm 3 mps 743 mmHg 80%
    21:00 -6°C° 0 mm 3 mps 743 mmHg 81%
    22:00 -6°C° 0 mm 3 mps 743 mmHg 83%
    23:00 -6°C° 0 mm 3 mps 742 mmHg 84%

    Tomorrow, 24 January, Friday

    Time Temperature Precipitation Wind Pressure Humidity
    00:00 -5°C° 0 mm 3 mps 742 mmHg 86%
    01:00 -5°C° 0 mm 3 mps 742 mmHg 88%
    02:00 -5°C° 0 mm 4 mps 741 mmHg 90%
    03:00 -4°C° 0 mm 4 mps 740 mmHg 89%
    04:00 -4°C° 0 mm 4 mps 740 mmHg 88%
    05:00 -4°C° 0 mm 5 mps 739 mmHg 87%
    06:00 -4°C° 0.1 mm 5 mps 738 mmHg 90%
    07:00 -4°C° 0.1 mm 5 mps 737 mmHg 92%
    08:00 -4°C° 0.1 mm 5 mps 737 mmHg 94%
    09:00 -2°C° 0.1 mm 5 mps 736 mmHg 95%
    10:00 -1°C° 0.1 mm 5 mps 735 mmHg 95%
    11:00 0°C° 0.1 mm 5 mps 735 mmHg 95%
    12:00 0°C° 0 mm 5 mps 734 mmHg 95%
    13:00 0°C° 0 mm 5 mps 734 mmHg 95%
    14:00 +1°C° 0 mm 5 mps 733 mmHg 95%
    15:00 +1°C° 0.2 mm 5 mps 733 mmHg 95%
    16:00 +1°C° 0.2 mm 6 mps 732 mmHg 94%
    17:00 +1°C° 0.2 mm 6 mps 732 mmHg 94%
    18:00 +1°C° 0.1 mm 5 mps 732 mmHg 93%
    19:00 +1°C° 0.1 mm 5 mps 733 mmHg 93%
    20:00 0°C° 0.1 mm 5 mps 733 mmHg 93%
    21:00 0°C° 0.3 mm 4 mps 733 mmHg 94%
    22:00 -1°C° 0.3 mm 4 mps 733 mmHg 95%
    23:00 0°C° 0.3 mm 3 mps 733 mmHg 96%

    Day after tomorrow, 25 January, Saturday

    Time Temperature Precipitation Wind Pressure Humidity
    00:00 0°C° 0.3 mm 3 mps 733 mmHg 95%
    01:00 -1°C° 0.3 mm 4 mps 733 mmHg 94%
    02:00 -1°C° 0.3 mm 4 mps 733 mmHg 94%
    03:00 -1°C° 0 mm 4 mps 733 mmHg 91%
    04:00 -1°C° 0 mm 4 mps 733 mmHg 89%
    05:00 -2°C° 0 mm 5 mps 732 mmHg 87%
    06:00 -2°C° 0 mm 5 mps 732 mmHg 86%
    07:00 -1°C° 0 mm 5 mps 732 mmHg 85%
    08:00 -1°C° 0 mm 5 mps 732 mmHg 84%
    09:00 -2°C° 0 mm 6 mps 732 mmHg 81%
    10:00 -2°C° 0 mm 6 mps 732 mmHg 79%
    11:00 -2°C° 0 mm 6 mps 732 mmHg 76%
    12:00 -2°C° 0.2 mm 7 mps 732 mmHg 79%
    13:00 -2°C° 0.2 mm 7 mps 732 mmHg 82%
    14:00 -3°C° 0.2 mm 7 mps 732 mmHg 85%
    15:00 -3°C° 0.4 mm 7 mps 732 mmHg 82%
    16:00 -3°C° 0.4 mm 6 mps 732 mmHg 79%
    17:00 -4°C° 0.4 mm 6 mps 732 mmHg 77%
    18:00 -4°C° 0 mm 6 mps 733 mmHg 76%
    19:00 -4°C° 0 mm 6 mps 734 mmHg 76%
    20:00 -5°C° 0 mm 5 mps 734 mmHg 76%
    21:00 -5°C° 0 mm 6 mps 735 mmHg 77%
    22:00 -5°C° 0 mm 6 mps 735 mmHg 78%
    23:00 -5°C° 0 mm 6 mps 736 mmHg 79%

    26 January, Sunday

    Time Temperature Precipitation Wind Pressure Humidity
    00:00 -5°C° 0 mm 5 mps 737 mmHg 79%
    01:00 -5°C° 0 mm 5 mps 737 mmHg 79%
    02:00 -6°C° 0 mm 5 mps 738 mmHg 79%
    03:00 -6°C° 0 mm 5 mps 739 mmHg 80%
    04:00 -6°C° 0 mm 5 mps 739 mmHg 81%
    05:00 -6°C° 0 mm 5 mps 740 mmHg 81%
    06:00 -5°C° 0 mm 4 mps 741 mmHg 82%
    07:00 -5°C° 0 mm 4 mps 742 mmHg 82%
    08:00 -5°C° 0 mm 4 mps 742 mmHg 82%
    09:00 -5°C° 0 mm 4 mps 743 mmHg 80%
    10:00 -4°C° 0 mm 4 mps 744 mmHg 78%
    11:00 -4°C° 0 mm 4 mps 745 mmHg 76%
    12:00 -4°C° 0 mm 3 mps 745 mmHg 76%
    13:00 -4°C° 0 mm 3 mps 745 mmHg 76%
    14:00 -2°C° 0 mm 3 mps 746 mmHg 76%
    15:00 -3°C° 0 mm 2 mps 746 mmHg 78%
    16:00 -4°C° 0 mm 2 mps 746 mmHg 81%
    17:00 -4°C° 0 mm 2 mps 746 mmHg 84%
    18:00 -4°C° 0 mm 2 mps 746 mmHg 83%
    19:00 -4°C° 0 mm 2 mps 746 mmHg 83%
    20:00 -4°C° 0 mm 2 mps 746 mmHg 82%
    21:00 -4°C° 0 mm 2 mps 746 mmHg 84%
    22:00 -3°C° 0 mm 2 mps 746 mmHg 86%
    23:00 -4°C° 0 mm 3 mps 746 mmHg 87%

    27 January, Monday

    Time Temperature Precipitation Wind Pressure Humidity
    00:00 -4°C° 0.1 mm 3 mps 746 mmHg 90%
    01:00 -2°C° 0.1 mm 3 mps 745 mmHg 93%
    02:00 -2°C° 0.1 mm 3 mps 745 mmHg 96%
    03:00 -2°C° 0.2 mm 3 mps 745 mmHg 96%
    04:00 -2°C° 0.2 mm 4 mps 744 mmHg 96%
    05:00 -2°C° 0.2 mm 4 mps 744 mmHg 96%
    06:00 -2°C° 0.1 mm 4 mps 744 mmHg 96%
    07:00 -2°C° 0.1 mm 4 mps 744 mmHg 95%
    08:00 -2°C° 0.1 mm 4 mps 744 mmHg 95%
    09:00 -2°C° 0.1 mm 4 mps 743 mmHg 94%
    10:00 -1°C° 0.1 mm 4 mps 743 mmHg 93%
    11:00 -1°C° 0.1 mm 4 mps 743 mmHg 93%
    12:00 -1°C° 0 mm 4 mps 743 mmHg 94%
    13:00 -1°C° 0 mm 4 mps 743 mmHg 95%
    14:00 -1°C° 0 mm 4 mps 742 mmHg 97%
    15:00 -1°C° 0.1 mm 4 mps 742 mmHg 97%
    16:00 -2°C° 0.1 mm 4 mps 742 mmHg 97%
    17:00 -1°C° 0.1 mm 3 mps 742 mmHg 97%
    18:00 -1°C° 0.4 mm 3 mps 741 mmHg 97%
    19:00 -1°C° 0.4 mm 3 mps 740 mmHg 97%
    20:00 -1°C° 0.4 mm 3 mps 740 mmHg 97%
    21:00 -1°C° 0.3 mm 3 mps 740 mmHg 97%
    22:00 -1°C° 0.3 mm 3 mps 739 mmHg 98%
    23:00 -1°C° 0.3 mm 2 mps 739 mmHg 98%

    28 January, Tuesday

    Time Temperature Precipitation Wind Pressure Humidity
    00:00 -1°C° 0.3 mm 2 mps 739 mmHg 98%
    01:00 -1°C° 0.3 mm 2 mps 738 mmHg 98%
    02:00 -1°C° 0.3 mm 2 mps 738 mmHg 98%
    03:00 -1°C° 0.2 mm 3 mps 737 mmHg 97%
    04:00 -1°C° 0.2 mm 3 mps 737 mmHg 97%
    05:00 -1°C° 0.2 mm 3 mps 737 mmHg 97%
    06:00 -1°C° 0.2 mm 3 mps 737 mmHg 97%
    07:00 -1°C° 0.2 mm 3 mps 737 mmHg 97%
    08:00 -1°C° 0.2 mm 3 mps 737 mmHg 98%
    09:00 -1°C° 0.1 mm 3 mps 737 mmHg 97%
    10:00 0°C° 0.1 mm 3 mps 738 mmHg 97%
    11:00 -1°C° 0.1 mm 4 mps 738 mmHg 97%
    12:00 -1°C° 0 mm 4 mps 739 mmHg 96%
    13:00 0°C° 0 mm 3 mps 739 mmHg 94%
    14:00 0°C° 0 mm 3 mps 739 mmHg 93%
    15:00 -1°C° 0 mm 3 mps 740 mmHg 92%
    16:00 -1°C° 0 mm 3 mps 740 mmHg 91%
    17:00 -2°C° 0 mm 2 mps 741 mmHg 90%
    18:00 -3°C° 0 mm 2 mps 741 mmHg 91%
    19:00 -3°C° 0 mm 2 mps 741 mmHg 92%
    20:00 -4°C° 0 mm 2 mps 741 mmHg 93%
    21:00 -4°C° 0 mm 2 mps 740 mmHg 93%
    22:00 -5°C° 0 mm 3 mps 740 mmHg 92%
    23:00 -4°C° 0 mm 3 mps 740 mmHg 91%
    Show more